Weather History for Greenville, ME

Change the Weather History Date:

Thursday, May 23, 2013

  Actual Average (KMLT) Record (KMLT)
Temperature  
Mean Temperature 52 °F 55 °F  
Max Temperature 61 °F 67 °F 94 °F (1977)
Min Temperature 45 °F 44 °F 27 °F (1905)
Degree Days  
Heating Degree Days 12 10  
Month to date heating degree days 300  
Since 1 July heating degree days 8221  
Cooling Degree Days 0 0  
Month to date cooling degree days 0  
Year to date cooling degree days 0  
Growing Degree Days 2 (Base 50)    
Moisture  
Dew Point 52 °F    
Average Humidity 97    
Maximum Humidity 100    
Minimum Humidity 90    
Precipitation  
Precipitation 0.06 in 0.12 in 1.49 in (1931)
Month to date precipitation 2.39  
Year to date precipitation 14.12  
Sea Level Pressure  
Sea Level Pressure 29.83 in    
Wind  
Wind Speed 5 mph (SE)    
Max Wind Speed 8 mph    
Max Gust Speed 17 mph    
T = Trace of Precipitation, MM = Missing Value Source: NWS Daily Summary

Daily Weather History Graph

Daily Weather History Graph

Search for Another Location

Airport:

Trip Planner

Search our weather history database for the weather conditions in past years. The results will help you decide how hot, cold, wet, or windy it might be!

Date:

Astronomy

May. 23, 2013 Rise Set
Actual Time 4:59 AM EDT 8:11 PM EDT
Civil Twilight 4:23 AM EDT 8:47 PM EDT
Nautical Twilight 3:37 AM EDT 9:33 PM EDT
Astronomical Twilight 2:40 AM EDT 10:31 PM EDT
Moon 6:36 PM EDT (5/23) 3:47 AM EDT (5/23)
Length of Visible Light 16h 23m
Length of Day
15h 11m
Waxing Gibbous, 97% of the Moon is Illuminated
May 23
Waxing Gibbous
May 25
Full
May 31
Last Quarter
Jun 8
New
Jun 16
First Quarter

Hourly Weather History & Observations

Time (EDT) Temp. Windchill Dew Point Humidity Pressure Visibility Wind Dir Wind Speed Gust Speed Precip Events Conditions
12:56 AM 46.9 °F - 46.0 °F 97% 29.90 in - Variable 6.9 mph 17.3 mph N/A   Unknown
1:56 AM 46.0 °F 43.9 °F 46.0 °F 100% 29.90 in - Variable 4.6 mph - N/A   Unknown
2:56 AM 46.0 °F 42.5 °F 46.0 °F 100% 29.88 in - Variable 6.9 mph - 0.01 in   Unknown
3:56 AM 46.0 °F 41.9 °F 45.0 °F 96% 29.86 in - SSE 8.1 mph - N/A   Unknown
4:56 AM 46.0 °F 43.9 °F 45.0 °F 96% 29.88 in - Variable 4.6 mph - N/A   Unknown
5:56 AM 45.0 °F 41.8 °F 45.0 °F 100% 29.86 in - Variable 5.8 mph - N/A   Unknown
6:56 AM 46.0 °F 43.9 °F 45.0 °F 96% 29.87 in - Variable 4.6 mph - N/A   Unknown
7:56 AM 46.0 °F 42.5 °F 46.0 °F 100% 29.87 in - Variable 6.9 mph - N/A   Unknown
8:56 AM 48.0 °F - 48.0 °F 100% 29.86 in - Variable 4.6 mph - N/A   Unknown
9:56 AM 48.9 °F - 48.9 °F 100% 29.86 in - Variable 3.5 mph - N/A   Unknown
10:56 AM 50.0 °F - 50.0 °F 100% 29.85 in - Variable 4.6 mph - N/A   Unknown
11:56 AM 53.1 °F - 52.0 °F 96% 29.82 in - Variable 4.6 mph - N/A   Unknown
12:56 PM 54.0 °F - 53.1 °F 97% 29.81 in - Calm Calm - N/A   Unknown
1:56 PM 57.0 °F - 55.0 °F 93% 29.81 in - Variable 5.8 mph - N/A   Unknown
2:56 PM 57.0 °F - 55.0 °F 93% 29.80 in - SE 6.9 mph - N/A   Unknown
3:56 PM 57.9 °F - 55.0 °F 90% 29.78 in - Variable 4.6 mph - N/A   Unknown
4:56 PM 57.9 °F - 57.0 °F 97% 29.79 in - SE 4.6 mph - N/A   Unknown
5:56 PM 59.0 °F - 57.9 °F 96% 29.79 in - Calm Calm - 0.01 in   Unknown
6:56 PM 59.0 °F - 57.9 °F 96% 29.78 in - Calm Calm - 0.01 in   Unknown
7:56 PM 60.1 °F - 59.0 °F 96% 29.78 in - SSE 4.6 mph - N/A   Unknown
8:56 PM 60.1 °F - 59.0 °F 96% 29.80 in - Calm Calm - N/A   Unknown
9:56 PM 60.1 °F - 59.0 °F 96% 29.80 in - Calm Calm - N/A   Unknown
10:56 PM 60.1 °F - 59.0 °F 96% 29.79 in - Calm Calm - 0.01 in   Unknown
11:56 PM 60.1 °F - 59.0 °F 96% 29.77 in - Calm Calm - 0.02 in   Unknown